Weather History for Agadir Al Massira, Morocco

Change the Weather History Date:

Tuesday, March 4, 2014

  Actual Average Record
Temperature  
Mean Temperature 60 °F -  
Max Temperature 71 °F - - ()
Min Temperature 48 °F - - ()
Degree Days  
Heating Degree Days 6    
Growing Degree Days 10 (Base 50)    
Moisture  
Dew Point 51 °F    
Average Humidity 74    
Maximum Humidity 94    
Minimum Humidity 41    
Precipitation  
Precipitation 0.00 in - - ()
Sea Level Pressure  
Sea Level Pressure 29.96 in    
Wind  
Wind Speed 3 mph ()    
Max Wind Speed 10 mph    
Max Gust Speed -    
Visibility 6.0 miles    
Events      
T = Trace of Precipitation, MM = Missing Value Source: Averaged Metar Reports

Daily Weather History Graph

Daily Weather History Graph

Search for Another Location

Airport:

Trip Planner

Search our weather history database for the weather conditions in past years. The results will help you decide how hot, cold, wet, or windy it might be!

Date:

Astronomy

Mar. 04, 2014 Rise Set
Actual Time 7:00 AM WET 6:38 PM WET
Civil Twilight 6:36 AM WET 7:02 PM WET
Nautical Twilight 6:08 AM WET 7:30 PM WET
Astronomical Twilight 5:40 AM WET 7:58 PM WET
Moon 8:54 AM WET (3/4) 10:12 PM WET (3/4)
Length of Visible Light 12h 25m
Length of Day
11h 37m
Waxing Crescent, 13% of the Moon is Illuminated
Mar 4
Waxing Crescent
Mar 8
First Quarter
Mar 16
Full
Mar 24
Last Quarter
Mar 30
New

Hourly Weather History & Observations

Time (WET) Temp. Dew Point Humidity Pressure Visibility Wind Dir Wind Speed Gust Speed Precip Events Conditions
12:00 AM 55 °F 51 °F 80% 30.02 in 6 mi Calm Calm - -  
12:00 AM 55.4 °F 50.0 °F 82% 30.01 in - Variable 1.2 mph - N/A   Clear
2:00 AM 51.8 °F 48.2 °F 88% 30.01 in - Calm Calm - N/A   Clear
3:00 AM 52 °F 49 °F 85% 30.00 in 6 mi ESE 4.6 mph - -  
3:00 AM 51.8 °F 48.2 °F 88% 29.98 in - ESE 4.6 mph - N/A   Clear
4:00 AM 51.8 °F 48.2 °F 88% 29.98 in - East 4.6 mph - N/A   Clear
5:00 AM 51.8 °F 48.2 °F 88% 29.98 in - ESE 5.8 mph - N/A   Clear
6:00 AM 51 °F 48 °F 85% 29.99 in 6 mi East 4.6 mph - -  
6:00 AM 50.0 °F 48.2 °F 94% 29.98 in - East 4.6 mph - N/A   Clear
7:00 AM 48.2 °F 44.6 °F 87% 29.98 in - NE 2.3 mph - N/A   Clear
8:00 AM 50.0 °F 48.2 °F 94% 29.98 in - Variable 1.2 mph - N/A   Clear
9:00 AM 57 °F 52 °F 79% 30.01 in 6 mi NE 2.3 mph - -  
9:00 AM 57.2 °F 51.8 °F 82% 29.98 in - Variable 2.3 mph - N/A   Clear
10:00 AM 62.6 °F 53.6 °F 72% 29.98 in - Variable 2.3 mph - N/A   Clear
11:00 AM 64.4 °F 51.8 °F 64% 29.98 in - West 4.6 mph - N/A   Clear
12:00 PM 68 °F 53 °F 49% 29.97 in 6 mi WSW 6.9 mph - -  
12:00 PM 68.0 °F 53.6 °F 60% 29.95 in - WSW 6.9 mph - N/A   Clear
1:00 PM 69.8 °F 53.6 °F 56% 29.95 in - West 10.4 mph - N/A   Clear
2:00 PM 68.0 °F 53.6 °F 60% 29.92 in - WSW 9.2 mph - N/A   Clear
3:00 PM 71 °F 52 °F 41% 29.91 in 6 mi WSW 9.2 mph - -  
3:00 PM 71.6 °F 51.8 °F 50% 29.89 in - WSW 9.2 mph - N/A   Clear
4:00 PM 71.6 °F 53.6 °F 53% 29.89 in - WSW 10.4 mph - N/A   Clear
5:00 PM 68.0 °F 53.6 °F 60% 29.89 in - WSW 9.2 mph - N/A   Clear
6:00 PM 65 °F 54 °F 58% 29.91 in 6 mi WNW 6.9 mph - -  
6:00 PM 64.4 °F 53.6 °F 68% 29.89 in - WNW 6.9 mph - N/A   Clear
7:00 PM 60.8 °F 53.6 °F 77% 29.92 in - West 5.8 mph - N/A   Clear
8:00 PM 59.0 °F 51.8 °F 77% 29.92 in - West 3.5 mph - N/A   Clear
9:00 PM 57 °F 52 °F 77% 29.96 in 6 mi Calm Calm - -  
9:00 PM 57.2 °F 51.8 °F 82% 29.95 in - Calm Calm - N/A   Clear
10:00 PM 53.6 °F 50.0 °F 88% 29.95 in - Calm Calm - N/A   Clear
11:00 PM 53.6 °F 48.2 °F 82% 29.95 in - NE 3.5 mph - N/A   Clear